Grave Point FAA Web Cam AK US FAA-ALASKA current weather conditions

sailwx.info

Wind from 306 at 1 knots

Air temperature 11.3° C
Dewpoint 8.9° C

Last reported at 2020-Aug-11 23:10 UTC.
Time now 2020-Aug-12 06:44 UTC

Location: N 58°04' W 134°03'.
View on Google Maps.

See reports from other nearby stations

  
Tides and Currents Weather Stations Pressure Air Temp Water Temp Dewpoint Dewpoint Depression Visibility Wind Speed Wind Dir Waves Ship Positions
date/time (UTC)wind fromknots sea level pressurealtimeterstation pressurevisibilityair tempwater tempwave heightnotes
2020-Aug-11 23:10 306 1 11.3
2020-Aug-11 23:00 202 0 10.9
2020-Aug-11 22:50 150 2 10.6
2020-Aug-11 22:40 114 4 10.8
2020-Aug-11 22:30 336 3 10.5
2020-Aug-11 22:10 324 2 10.8
2020-Aug-11 22:00 322 2 10.6
2020-Aug-11 21:50 067 0 10.8
2020-Aug-11 21:30 133 2 10.5
2020-Aug-11 21:20 315 1 10.3
2020-Aug-11 21:10 330 4 10.2
2020-Aug-11 21:00 324 4 10.5
2020-Aug-11 20:50 144 1 10.7
2020-Aug-11 20:30 121 4 10.6
2020-Aug-11 20:20 136 3 10.6
2020-Aug-11 20:10 135 2 10.6
2020-Aug-11 19:50 140 4 10.4
2020-Aug-11 17:50 139 4 10.1
2020-Aug-11 10:40 126 6 10.2
2020-Aug-11 10:30 120 5 10.0
2020-Aug-11 10:10 125 5 10.0
2020-Aug-11 10:00 120 5 10.0
2020-Aug-11 09:50 143 6 10.0
2020-Aug-11 08:30 146 4 10.2
2020-Aug-11 08:20 137 6 10.4
2020-Aug-11 08:10 118 6 10.6
2020-Aug-11 08:00 121 2 10.6
2020-Aug-11 07:50 082 3 10.3
2020-Aug-11 07:40 110 4 10.4
2020-Aug-11 07:30 119 4 10.4
2020-Aug-11 07:20 109 3 10.3
2020-Aug-11 07:10 138 4 10.4
2020-Aug-11 07:00 122 4 10.5
2020-Aug-10 21:10 130 20 11.9
2020-Aug-10 21:00 126 19 11.9
2020-Aug-10 20:50 132 19 11.7
2020-Aug-10 20:40 132 21 11.6
2020-Aug-10 20:20 130 24 11.6
2020-Aug-10 20:10 129 23 11.6
2020-Aug-10 20:00 134 24 11.7
2020-Aug-10 18:00 129 23 12.2
2020-Aug-10 17:50 135 22 11.9
2020-Aug-10 17:40 134 23 12.0
2020-Aug-10 17:20 135 25 11.9
2020-Aug-10 17:10 129 19 11.9
2020-Aug-10 17:00 133 23 11.8
2020-Aug-10 16:50 132 18 12.0
2020-Aug-10 16:30 133 18 11.6
2020-Aug-10 16:20 137 22 11.5
2020-Aug-10 16:00 136 22 11.7
2020-Aug-10 15:50 134 21 11.7
2020-Aug-10 14:50 127 28 11.6
2020-Aug-10 14:40 134 25 11.8
2020-Aug-10 13:50 134 29 11.6
2020-Aug-10 13:20 130 24 11.9
2020-Aug-10 13:10 132 26 11.7
2020-Aug-10 12:50 133 29 11.5
2020-Aug-10 12:30 134 30 11.4
2020-Aug-10 12:10 133 29 11.4
2020-Aug-10 12:00 132 26 11.5
2020-Aug-10 11:50 134 30 11.3
2020-Aug-10 11:40 129 25 11.5
2020-Aug-10 11:30 131 25 11.6
2020-Aug-10 11:20 126 20 11.8
2020-Aug-10 11:10 130 26 11.7
2020-Aug-10 11:00 132 26 11.7
2020-Aug-10 10:50 132 27 11.4
2020-Aug-10 10:40 132 28 11.3
2020-Aug-10 10:30 130 28 11.3
2020-Aug-10 10:20 130 28 11.3
2020-Aug-10 10:10 131 28 11.4
2020-Aug-10 10:00 133 29 11.4
2020-Aug-10 08:20 132 40 11.7
2020-Aug-10 08:10 134 34 11.8
2020-Aug-10 08:00 131 35 11.5
2020-Aug-10 07:50 134 38 11.6
2020-Aug-10 07:30 133 37 11.8
2020-Aug-10 07:20 133 40 11.6
2020-Aug-10 07:10 131 37 11.6
2020-Aug-10 06:50 136 39 11.7